Home > Weather > Birmingham > Past weeks

Flag for USA Past Weather in Birmingham, Alabama, USA — Yesterday and Last 2 Weeks

Now
93 °F

Partly sunny.


Feels Like: 99 °F
Forecast: 78 / 94 °F
Wind: 12 mph from Northwest

Location: Birmingham International Airport

Current Time: Jun 24, 2016 at 7:00:08 PM

Latest Report: Jun 24, 2016 at 5:53 PM


Visibility: 10 mi

Pressure: 30.01 "Hg

Humidity: 47%

Dew Point: 70 °F

Location of BirminghamLocation

Past Weather in Birmingham — Graph

°F

Birmingham Temperature Yesterday

Maximum temperature yesterday: 93 °F (at 4:53 PM)
Minimum temperature yesterday: 76 °F (at 5:53 AM)
Average temperature yesterday: 84 °F

High & Low Weather Summary for the Past Weeks

 TemperatureHumidityPressure
High96 °F (Jun 13, 3:01 PM)100% (Jun 16, 3:53 AM)30.36 "Hg (Jun 16, 3:53 AM)
Low64 °F (Jun 10, 4:53 AM)27% (Jun 10, 2:53 PM)29.83 "Hg (Jun 17, 1:53 PM)
Average81 °F66%30.06 "Hg
* Reported Jun 9 5:53 PM — Jun 24 5:53 PM, Birmingham, Weather by CustomWeather, © 2016

Note: Actual official high and low records may vary slightly from our data, if they occured in-between our weather recording intervals... More about our weather records

Advertising

Birmingham Weather History for the Previous 24 Hours

Scroll right to see more
 ConditionsComfort  
Time TempWeatherWind HumidityBarometerVisibility
5:53 PM
Fri, Jun 24
93 °FPartly sunny.12 mph47%30.01 "Hg10 mi
4:53 PM94 °FBroken clouds.9 mph44%30.03 "Hg10 mi
3:53 PM94 °FScattered clouds.7 mph46%30.04 "Hg10 mi
2:53 PM95 °FScattered clouds.7 mph41%30.05 "Hg10 mi
1:53 PM95 °FBroken clouds.10 mph41%30.06 "Hg10 mi
12:53 PM91 °FScattered clouds.12 mph52%30.07 "Hg10 mi
11:53 AM91 °FScattered clouds.12 mph52%30.07 "Hg10 mi
10:53 AM89 °FScattered clouds.12 mph55%30.09 "Hg10 mi
9:53 AM87 °FScattered clouds.10 mph59%30.10 "Hg10 mi
8:53 AM85 °FScattered clouds.7 mph63%30.12 "Hg10 mi
7:53 AM82 °FScattered clouds.5 mph67%30.12 "Hg10 mi
6:53 AM80 °FPartly sunny.No wind69%30.11 "Hg10 mi
5:53 AM77 °FPassing clouds.No wind74%30.08 "Hg10 mi
4:53 AM79 °FPassing clouds.6 mph67%30.06 "Hg10 mi
3:53 AM80 °FPassing clouds.6 mph64%30.05 "Hg10 mi
2:53 AM81 °FClear.8 mph60%30.04 "Hg10 mi
1:53 AM83 °FClear.6 mph57%30.05 "Hg10 mi
12:53 AM82 °FClear.6 mph56%30.05 "Hg10 mi
11:53 PM
Thu, Jun 23
83 °FClear.5 mph59%30.05 "Hg10 mi
10:53 PM84 °FClear.6 mph59%30.04 "Hg10 mi
9:53 PM85 °FClear.9 mph61%30.03 "Hg10 mi
8:53 PM86 °FSunny.10 mph59%30.02 "Hg10 mi
7:53 PM87 °FSunny.14 mph59%30.00 "Hg10 mi
Weather by CustomWeather, © 2016

See weather overviewHow to use our weather pages